Weather History for Somerville, NJ

Change the Weather History Date:

Monday, December 2, 2013

  Actual Average Record
Temperature  
Mean Temperature 39 °F -  
Max Temperature 48 °F 45 °F 61 °F (1932)
Min Temperature 28 °F 25 °F 7 °F (1976)
Degree Days  
Heating Degree Days 26    
Moisture  
Dew Point 30 °F    
Average Humidity 76    
Maximum Humidity 96    
Minimum Humidity 48    
Precipitation  
Precipitation 0.00 in - - ()
Sea Level Pressure  
Sea Level Pressure 29.94 in    
Wind  
Wind Speed 0 mph (NW)    
Max Wind Speed 5 mph    
Max Gust Speed -    
Visibility 9 miles    
Events      
Averages and records for this station are not official NWS values.
T = Trace of Precipitation, MM = Missing Value Source: NWS Daily Summary

Daily Weather History Graph

Daily Weather History Graph

Search for Another Location

Airport:

Trip Planner

Search our weather history database for the weather conditions in past years. The results will help you decide how hot, cold, wet, or windy it might be!

Date:

Astronomy

Dec. 02, 2013 Rise Set
Actual Time 7:04 AM EST 4:31 PM EST
Civil Twilight 6:33 AM EST 5:02 PM EST
Nautical Twilight 5:59 AM EST 5:36 PM EST
Astronomical Twilight 5:26 AM EST 6:09 PM EST
Moon 6:26 AM EST (12/2) 4:32 PM EST (12/2)
Length of Visible Light 10h 28m
Length of Day
9h 27m
Waning Crescent, 0% of the Moon is Illuminated
Dec 2
Waning Crescent
Dec 2
New
Dec 9
First Quarter
Dec 17
Full
Dec 25
Last Quarter

Hourly Weather History & Observations

Time (EST) Temp. Windchill Dew Point Humidity Pressure Visibility Wind Dir Wind Speed Gust Speed Precip Events Conditions
12:53 AM 35.1 °F - 30.0 °F 82% 30.01 in 10.0 mi Calm Calm - N/A   Overcast
1:53 AM 34.0 °F - 30.0 °F 85% 30.00 in 10.0 mi Calm Calm - N/A   Overcast
2:53 AM 34.0 °F - 28.9 °F 82% 30.00 in 10.0 mi Calm Calm - N/A   Overcast
3:53 AM 34.0 °F - 30.0 °F 85% 29.98 in 10.0 mi Calm Calm - N/A   Overcast
4:53 AM 35.1 °F - 30.0 °F 82% 29.96 in 10.0 mi Calm Calm - N/A   Overcast
5:53 AM 35.1 °F - 30.0 °F 82% 29.96 in 10.0 mi Calm Calm - N/A   Overcast
6:53 AM 35.1 °F - 30.9 °F 85% 29.97 in 9.0 mi Calm Calm - N/A   Overcast
7:53 AM 36.0 °F - 30.0 °F 79% 29.97 in 8.0 mi Calm Calm - N/A   Overcast
8:53 AM 37.9 °F - 32.0 °F 79% 29.97 in 8.0 mi Calm Calm - N/A   Overcast
9:53 AM 39.0 °F - 30.9 °F 73% 29.98 in 8.0 mi Calm Calm - N/A   Overcast
10:53 AM 41.0 °F - 30.9 °F 67% 29.96 in 8.0 mi Calm Calm - N/A   Overcast
11:53 AM 43.0 °F - 30.9 °F 62% 29.94 in 8.0 mi Calm Calm - N/A   Overcast
12:53 PM 46.0 °F - 28.9 °F 51% 29.92 in 10.0 mi Calm Calm - N/A   Overcast
1:53 PM 48.0 °F - 28.9 °F 48% 29.88 in 10.0 mi Calm Calm - N/A   Clear
2:53 PM 48.0 °F - 30.0 °F 50% 29.90 in 10.0 mi Calm Calm - N/A   Overcast
3:53 PM 46.9 °F - 30.0 °F 52% 29.92 in 10.0 mi Calm Calm - N/A   Overcast
4:53 PM 43.0 °F - 30.9 °F 62% 29.90 in 10.0 mi Calm Calm - N/A   Scattered Clouds
5:53 PM 39.0 °F - 32.0 °F 76% 29.89 in 10.0 mi Calm Calm - N/A   Clear
6:53 PM 36.0 °F 32.1 °F 30.9 °F 82% 29.90 in 9.0 mi NW 4.6 mph - N/A   Clear
7:53 PM 32.0 °F - 28.9 °F 88% 29.90 in 9.0 mi Calm Calm - N/A   Clear
8:53 PM 30.9 °F 26.2 °F 28.9 °F 92% 29.91 in 8.0 mi NW 4.6 mph - N/A   Clear
9:53 PM 30.0 °F - 28.0 °F 92% 29.91 in 7.0 mi Calm Calm - N/A   Mostly Cloudy
10:53 PM 30.0 °F - 28.0 °F 92% 29.91 in 8.0 mi Calm Calm - N/A   Clear
11:53 PM 28.0 °F 22.8 °F 27.0 °F 96% 29.91 in 6.0 mi NW 4.6 mph - N/A   Clear